Hourly Data Report for October 15, 2021

TORONTO CITY
ONTARIO
Current Station Operator: ECCC - MSC

43°40'00.000" N
79°24'00.000" W
112.50 m
6158355
71508
XTO

Download Data

Hourly Data (October 2021)
Hourly Data Report for October 15, 2021
TIME
LST
Temp Definition
°C
Dew Point Definition
°C
Rel Hum Definition
%
Precip. Amount Definition
mm

Wind Dir Definition
10's deg

Wind Spd Definition
km/h
Visibility Definition
km
Stn Press Definition
kPa
Hmdx Definition


Wind Chill Definition


Weather Definition


00:00 18.7 17.7 94 0.3       99.74     LegendNANA
01:00 18.9 18.3 96 0.9       99.70     LegendNANA
02:00 18.8 18.0 95 0.0       99.72     LegendNANA
03:00 18.1 17.5 96 0.0       99.70     LegendNANA
04:00 18.3 17.7 96 0.0       99.75     LegendNANA
05:00 18.1 17.1 94 0.0       99.79     LegendNANA
06:00 17.4 15.1 86 0.0       99.81     LegendNANA
07:00 17.0 15.1 89 0.1       99.87     LegendNANA
08:00 17.2 14.2 82 0.0       99.88     LegendNANA
09:00 17.8 13.7 77 0.0       99.86     LegendNANA
10:00 18.8 14.1 74 0.0       99.89     LegendNANA
11:00 18.8 12.6 67 0.0       99.84     LegendNANA
12:00 19.3 14.2 72 0.0       99.79     LegendNANA
13:00 19.6 13.5 68 0.0       99.70     LegendNANA
14:00 19.2 14.1 72 0.0       99.65     LegendNANA
15:00 19.2 15.0 76 0.0       99.59     LegendNANA
16:00 19.0 14.8 77 0.0       99.52     LegendNANA
17:00 16.9 14.8 88 1.3       99.47     LegendNANA
18:00 17.2 15.5 90 0.3       99.46     LegendNANA
19:00 16.4 14.8 90 3.1       99.36     LegendNANA
20:00 15.5 14.5 94 13.1       99.36     LegendNANA
21:00 15.6 14.6 94 2.5       99.25     LegendNANA
22:00 15.8 14.8 94 0.0       99.18     LegendNANA
23:00 16.1 15.2 94 0.0       99.14     LegendNANA

Notes on Data Quality.

Legend

  • E = Estimated
  • M = Missing
  • NA = Not Available*
  • [empty] = Indicates an unobserved value
Date modified: